User: anonymous   Login
Location: Unspecified
(0.0000°N, 0.0000°E)
Time: 20:14:38
(UTC+00:00)
Language:

STARLINK-32779 - Orbit

View from above orbital plane
View from above orbital plane
View from above satellite
View from above satellite

Ground track
Ground track

The orbit is defined by the following mean orbital elements,

1 63030U          26145.39095918 +.00000000 +00000-0 +45460-3 0 00009
2 63030  53.1580 275.1006 0001073 103.7141 256.3980 15.30211576    09
Epoch (UTC): 25 May 2026 09:22:58
Eccentricity: 0.0001073
inclination: 53.1580°
perigee height: 474 km
apogee height: 476 km
right ascension of ascending node: 275.1006°
argument of perigee: 103.7141°
revolutions per day: 15.30211576
mean anomaly at epoch: 256.3980°

The dashed part of the orbit path shows where the satellite is in the earth's shadow,  

DLR